This is the latest recevied weather packets stored in our database for station/object KI6PPU. If no packets are shown the sender has not sent any weather packets the latest 10 day(s).
| Time | Temp. | Humidity | Pressure | Rain* | Wind** | Luminosity | Snow |
|---|---|---|---|---|---|---|---|
| 1778210023 | 19.44° C | 78% | 1018.6 hPa | 0 mm | - | 0 W/m² | - |
| 1778209719 | 20° C | 77% | 1018.5 hPa | 0 mm | - | 0 W/m² | - |
| 1778209416 | 20° C | 76% | 1018.5 hPa | 0 mm | - | 0 W/m² | - |
| 1778209113 | 20.56° C | 74% | 1018.2 hPa | 0 mm | - | 1 W/m² | - |
| 1778208810 | 20.56° C | 74% | 1018.3 hPa | 0 mm | - | 4 W/m² | - |
| 1778208507 | 21.67° C | 70% | 1018.4 hPa | 0 mm | - | 6 W/m² | - |
| 1778208203 | 21.67° C | 69% | 1018.3 hPa | 0 mm | - | 9 W/m² | - |
| 1778207900 | 22.22° C | 70% | 1018.3 hPa | 0 mm | - | 11 W/m² | - |
| 1778207597 | 22.22° C | 68% | 1018.4 hPa | 0 mm | - | 13 W/m² | - |
| 1778207294 | 22.78° C | 66% | 1018.2 hPa | 0 mm | - | 16 W/m² | - |
| 1778206989 | 22.78° C | 67% | 1018.5 hPa | 0 mm | - | 18 W/m² | - |
| 1778206687 | 23.33° C | 67% | 1018.5 hPa | 0 mm | - | 21 W/m² | - |
| 1778206383 | 23.33° C | 65% | 1018.2 hPa | 0 mm | - | 22 W/m² | - |
| 1778206079 | 23.89° C | 65% | 1018.5 hPa | 0 mm | - | 24 W/m² | - |
| 1778205777 | 23.89° C | 64% | 1018.5 hPa | 0 mm | - | 26 W/m² | - |
| 1778205473 | 24.44° C | 62% | 1018.4 hPa | 0 mm | - | 28 W/m² | - |
| 1778205171 | 24.44° C | 62% | 1018.4 hPa | 0 mm | - | 29 W/m² | - |
| 1778204867 | 25° C | 59% | 1018.4 hPa | 0 mm | - | 31 W/m² | - |
| 1778204564 | 25° C | 63% | 1018.2 hPa | 0 mm | - | 32 W/m² | - |
| 1778204260 | 25° C | 60% | 1018.4 hPa | 0 mm | - | 33 W/m² | - |
| 1778203957 | 25.56° C | 58% | 1018.5 hPa | 0 mm | - | 35 W/m² | - |
| 1778203654 | 25.56° C | 61% | 1018.3 hPa | 0 mm | - | 37 W/m² | - |
| 1778203351 | 25.56° C | 59% | 1018.5 hPa | 0 mm | - | 37 W/m² | - |
| 1778203049 | 25.56° C | 59% | 1018.4 hPa | 0 mm | - | 39 W/m² | - |
| 1778202746 | 25.56° C | 57% | 1018.5 hPa | 0 mm | - | 39 W/m² | - |
* Rain latest hour (hover to see other rain measurements)
** Current wind speed in m/s (hover to see current wind gust speed)